Flag for U.S.A. Weather past 2 weeks in San Antonio, Texas, U.S.A.

Now
58 °F

Clear.


Feels Like: 55 °F
Forecast: 56 / 68 °F
Wind: 13 mph from Northwest

Location: San Antonio International Airport

Current Time: Apr 28, 2015 at 7:07:00 AM

Latest Report: Apr 28, 2015 at 5:51 AM


Visibility: 10 mi

Pressure: 29.88 "Hg

Humidity: 62%

Dew point: 45 °F

Location of San AntonioLocation

Historic Weather in San Antonio — Graph

°F

San Antonio temperature yesterday

Maximum temperature yesterday: 87 °F (at 3:51 PM)
Minimum temperature yesterday: 63 °F (at 1:51 AM)
Average temperature yesterday: 74 °F

Past Weeks' High & Low Weather Summary

 TemperatureHumidityPressure
High90 °F (Apr 25, 3:51 PM)97% (Apr 23, 8:51 AM)30.06 "Hg (Apr 23, 8:51 AM)
Low54 °F (Apr 21, 4:51 AM)24% (Apr 19, 6:51 PM)29.48 "Hg (Apr 26, 10:51 PM)
Average72 °F73%29.82 "Hg
* Reported Apr 13 5:51 AM — Apr 28 5:51 AM, San Antonio, Weather by CustomWeather, © 2015

Note: Actual official high and low records may vary slightly from our data, if they occured in-between our weather recording intervals... More about our weather records

Advertising

San Antonio weather history for previous 24 hours

 ConditionsComfort  
Time TempWeatherWind HumidityBarometerVisibility
5:51 AM
Tue, Apr 28
58 °FClear.13 mph62%29.88 "Hg10 mi
4:51 AM62 °FClear.16 mph58%29.85 "Hg10 mi
3:51 AM64 °FClear.14 mph63%29.82 "Hg10 mi
2:51 AM66 °FPassing clouds.16 mph65%29.79 "Hg10 mi
1:51 AM67 °FPassing clouds.13 mph68%29.80 "Hg10 mi
12:51 AM69 °FPassing clouds.14 mph68%29.79 "Hg10 mi
11:51 PM
Mon, Apr 27
70 °FPassing clouds.5 mph64%29.75 "Hg10 mi
10:51 PM73 °FPassing clouds.6 mph59%29.74 "Hg10 mi
9:51 PM75 °FPassing clouds.7 mph55%29.72 "Hg10 mi
8:51 PM77 °FPassing clouds.5 mph56%29.70 "Hg10 mi
7:51 PM84 °FPassing clouds.3 mph24%29.65 "Hg10 mi
6:51 PM84 °FPassing clouds.6 mph27%29.63 "Hg10 mi
5:51 PM85 °FPassing clouds.13 mph27%29.62 "Hg10 mi
4:51 PM86 °FPassing clouds.9 mph27%29.61 "Hg10 mi
3:51 PM87 °FScattered clouds.No wind36%29.61 "Hg10 mi
2:51 PM86 °FPassing clouds.5 mph46%29.63 "Hg10 mi
1:51 PM83 °FPassing clouds.3 mph53%29.65 "Hg10 mi
12:51 PM80 °FPassing clouds.3 mph56%29.66 "Hg10 mi
11:51 AM77 °FPassing clouds.No wind64%29.67 "Hg10 mi
10:51 AM75 °FPassing clouds.3 mph66%29.67 "Hg10 mi
9:51 AM72 °FPassing clouds.10 mph71%29.66 "Hg10 mi
8:51 AM68 °FScattered clouds.13 mph76%29.65 "Hg10 mi
7:51 AM64 °FPartly cloudy.9 mph84%29.62 "Hg10 mi
Weather by CustomWeather, © 2015

See weather overviewHow to use our weather pages